logo
Search for airport 
image banner adimage banner adimage banner ad
image banner ad

UCFL - Issyk-Kul

Located in Tamchy, Kyrgyzstan

ICAO - , IATA -

Data provided by Airmate  

General information

Coordinates: N42°35'9" E76°42'7"
Elevation is 5426 feet MSL.
Magnetic variation is +5° East
View others Airports in Issyk-Kul

Operational data

Special qualification required
Current time UTC:
Current local time:
Weather
METAR: UCFL 150900Z 14002MPS 090V170 9999 BKN030CB 19/08 Q1014
TAF: TAF UCFL 150449Z 1506/1606 15003G08MPS 9999 SCT030CB BKN100 TEMPO 1506/1514 VRB07G12MPS 3000 -TSRA BKN020CB BECMG 1514/1516 33003G08MPS TEMPO 1514/1518 25003G08MPS
View NOTAMs / SUP AIP / TFR affecting this airport [VIEW]
Communications frequencies: [VIEW]

Runways:

RWY identifierQFULength (ft)Width (ft)SurfaceLDA (ft)
0774°12467148CONC12467
25254°12467148CONC12467

Airport contact information

Address: Tamchy Kyrgyzstan

Satellite view of UCFL